FW6151 Weather Reports


time (UTC)temp
C
wind
direction
speed
KPH
gust
KPH
rain 1hr
cm
rain 24hr
cm
rain mn
cm
humidity
%
barometer
mb
20260502214528 16 234 0.0 0.0 0.00 0.00 0.00 73 1019.5
20260502214027 16 234 0.0 0.0 0.00 0.00 0.00 73 1019.5
20260502213528 16 234 0.0 0.0 0.00 0.00 0.00 73 1019.5
20260502213027 16 234 0.0 0.0 0.00 0.00 0.00 72 1019.5
20260502212527 16 234 0.0 0.0 0.00 0.00 0.00 71 1019.5
20260502212026 16 234 0.0 0.0 0.00 0.00 0.00 71 1019.5
20260502211533 16 234 0.0 0.0 0.00 0.00 0.00 72 1019.4
20260502211026 16 234 0.0 0.0 0.00 0.00 0.00 71 1019.4
20260502210526 17 234 0.0 0.0 0.00 0.00 0.00 70 1019.4
20260502210026 17 245 0.0 0.0 0.00 0.00 0.00 70 1019.4
20260502205626 17 245 0.0 0.0 0.00 0.00 0.00 70 1019.4
20260502205025 17 244 0.0 3.2 0.00 0.00 0.00 69 1019.4
20260502204536 17 355 0.0 3.2 0.00 0.00 0.00 68 1019.5
20260502204027 17 96 0.0 0.0 0.00 0.00 0.00 68 1019.5
20260502203527 17 88 0.0 0.0 0.00 0.00 0.00 66 1019.5
20260502203035 17 88 0.0 0.0 0.00 0.00 0.00 66 1019.4
20260502202524 18 88 0.0 0.0 0.00 0.00 0.00 65 1019.2
20260502202024 18 88 0.0 0.0 0.00 0.00 0.00 64 1019.1
20260502201525 18 91 0.0 0.0 0.00 0.00 0.00 63 1019.0
20260502201024 18 91 0.0 0.0 0.00 0.00 0.00 62 1019.1
20260502200524 18 91 0.0 0.0 0.00 0.00 0.00 62 1019.0
20260502200024 18 91 0.0 0.0 0.00 0.00 0.00 61 1018.9
20260502195626 18 91 0.0 0.0 0.00 0.00 0.00 60 1018.9
20260502195023 19 91 0.0 0.0 0.00 0.00 0.00 60 1018.8
20260502194528 19 90 0.0 0.0 0.00 0.00 0.00 59 1018.7
20260502194023 19 90 0.0 0.0 0.00 0.00 0.00 59 1018.8
20260502193523 19 90 0.0 0.0 0.00 0.00 0.00 59 1018.7
20260502193023 20 90 0.0 0.0 0.00 0.00 0.00 58 1018.7
20260502192522 20 90 0.0 0.0 0.00 0.00 0.00 58 1018.8
20260502192022 20 90 0.0 0.0 0.00 0.00 0.00 56 1018.7
20260502191523 20 55 0.0 0.0 0.00 0.00 0.00 56 1018.7
20260502191022 20 43 0.0 0.0 0.00 0.00 0.00 56 1018.7
20260502190522 21 43 0.0 0.0 0.00 0.00 0.00 56 1018.6
20260502190022 21 43 0.0 0.0 0.00 0.00 0.00 56 1018.7
20260502185521 21 43 0.0 0.0 0.00 0.00 0.00 56 1018.7
20260502185022 21 43 0.0 0.0 0.00 0.00 0.00 55 1018.6
20260502184525 22 43 0.0 0.0 0.00 0.00 0.00 54 1018.5
20260502184021 22 43 0.0 3.2 0.00 0.00 0.00 52 1018.4
20260502183521 22 44 0.0 3.2 0.00 0.00 0.00 51 1018.4
20260502183021 22 44 0.0 3.2 0.00 0.00 0.00 49 1018.3
20260502182523 23 44 0.0 3.2 0.00 0.00 0.00 48 1018.3
20260502182020 23 44 0.0 1.6 0.00 0.00 0.00 47 1018.3
20260502181520 23 44 0.0 3.2 0.00 0.00 0.00 47 1018.2
20260502181022 23 44 0.0 3.2 0.00 0.00 0.00 46 1018.2
20260502180521 23 40 0.0 8.0 0.00 0.00 0.00 46 1018.2
20260502164016 26 325 0.0 4.8 0.00 0.00 0.00 37 1018.1
20260502163516 26 319 0.0 3.2 0.00 0.00 0.00 37 1018.1
20260502163034 26 319 0.0 6.4 0.00 0.00 0.00 37 1018.2
20260502162518 26 319 1.6 6.4 0.00 0.00 0.00 36 1018.2
20260502162017 26 68 0.0 6.4 0.00 0.00 0.00 36 1018.3
20260502161524 26 68 3.2 6.4 0.00 0.00 0.00 37 1018.4
20260502161014 26 295 3.2 8.0 0.00 0.00 0.00 37 1018.5
20260502160513 26 60 0.0 6.4 0.00 0.00 0.00 38 1018.5
20260502152010 26 130 0.0 4.8 0.00 0.00 0.00 36 1018.9
20260502151509 26 109 0.0 8.0 0.00 0.00 0.00 36 1019.0
20260502151009 26 313 1.6 6.4 0.00 0.00 0.00 36 1019.0
20260502150509 26 9 0.0 8.0 0.00 0.00 0.00 36 1019.0
20260502130558 27 180 1.6 8.0 0.00 0.00 0.00 38 1020.9
20260502130105 27 180 1.6 6.4 0.00 0.00 0.00 38 1021.1
20260502123552 26 129 1.6 6.4 0.00 0.00 0.00 39 1021.2
20260502123111 26 41 1.6 4.8 0.00 0.00 0.00 40 1021.4
20260502122550 26 48 0.0 9.7 0.00 0.00 0.00 41 1021.5
20260502122052 26 327 0.0 9.7 0.00 0.00 0.00 41 1021.6
20260502121554 26 328 0.0 8.0 0.00 0.00 0.00 40 1021.7
20260502121047 26 37 0.0 9.7 0.00 0.00 0.00 41 1021.7
20260502120547 25 327 3.2 12.9 0.00 0.00 0.00 40 1021.9
20260502115545 26 178 1.6 6.4 0.00 0.00 0.00 42 1021.9
20260502115044 26 178 0.0 4.8 0.00 0.00 0.00 41 1022.0
20260502114543 26 178 0.0 4.8 0.00 0.00 0.00 42 1022.0
20260502114047 25 178 0.0 4.8 0.00 0.00 0.00 42 1022.2
20260502113543 25 178 0.0 4.8 0.00 0.00 0.00 43 1022.2
20260502113048 25 178 1.6 4.8 0.00 0.00 0.00 42 1022.3
20260502112540 26 178 1.6 4.8 0.00 0.00 0.00 41 1022.5
20260502112039 26 178 1.6 4.8 0.00 0.00 0.00 42 1022.6
20260502111543 25 178 1.6 6.4 0.00 0.00 0.00 44 1022.5
20260502111038 25 178 1.6 6.4 0.00 0.00 0.00 43 1022.7
20260502110537 25 178 1.6 6.4 0.00 0.00 0.00 43 1022.7
20260502110036 25 178 1.6 4.8 0.00 0.00 0.00 44 1022.9
20260502105535 24 178 0.0 4.8 0.00 0.00 0.00 44 1022.9
20260502105033 25 178 1.6 6.4 0.00 0.00 0.00 44 1023.0
20260502104535 24 178 1.6 6.4 0.00 0.00 0.00 45 1023.0
20260502104032 24 178 1.6 4.8 0.00 0.00 0.00 46 1023.1
20260502103531 24 178 0.0 6.4 0.00 0.00 0.00 46 1023.2
20260502103031 23 281 1.6 6.4 0.00 0.00 0.00 47 1023.2
20260502102530 24 165 0.0 3.2 0.00 0.00 0.00 46 1023.3
20260502102029 24 165 0.0 8.0 0.00 0.00 0.00 46 1023.5
20260502101529 23 165 0.0 8.0 0.00 0.00 0.00 46 1023.5
20260502101027 23 152 1.6 4.8 0.00 0.00 0.00 46 1023.6
20260502100526 23 165 0.0 4.8 0.00 0.00 0.00 47 1023.6
20260502091521 22 128 0.0 6.4 0.00 0.00 0.00 47 1024.3
20260502091016 21 69 1.6 6.4 0.00 0.00 0.00 48 1024.3
20260502090515 21 62 1.6 6.4 0.00 0.00 0.00 47 1024.4
20260502071045 14 319 3.2 9.7 0.00 0.00 0.00 60 1025.3
20260502070544 13 360 1.6 8.0 0.00 0.00 0.00 62 1025.4
20260502070059 13 317 3.2 6.4 0.00 0.00 0.00 63 1025.5
20260502065542 13 215 1.6 6.4 0.00 0.00 0.00 64 1025.5
20260502065039 12 227 1.6 8.0 0.00 0.00 0.00 65 1025.6
20260502064548 12 216 3.2 8.0 0.00 0.00 0.00 66 1025.5
20260502064038 12 256 1.6 4.8 0.00 0.00 0.00 67 1025.6
20260502063538 12 263 0.0 3.2 0.00 0.00 0.00 67 1025.6
20260502063037 11 236 0.0 4.8 0.00 0.00 0.00 68 1025.6
20260502062537 11 230 0.0 8.0 0.00 0.00 0.00 68 1025.5
20260502062037 11 313 3.2 6.4 0.00 0.00 0.00 69 1025.5
20260502061536 11 239 0.0 3.2 0.00 0.00 0.00 70 1025.5
20260502061037 10 239 0.0 4.8 0.00 0.00 0.00 70 1025.5
20260502060535 10 14 0.0 4.8 0.00 0.00 0.00 70 1025.5
20260502060034 10 264 0.0 8.0 0.00 0.00 0.00 70 1025.5
20260502055535 10 296 0.0 8.0 0.00 0.00 0.00 70 1025.5
20260502055033 10 298 0.0 4.8 0.00 0.00 0.00 70 1025.4
20260502054536 10 319 0.0 8.0 0.00 0.00 0.00 70 1025.5
20260502054032 10 265 0.0 8.0 0.00 0.00 0.00 70 1025.5
20260502053532 10 319 0.0 8.0 0.00 0.00 0.00 70 1025.5
20260502053034 10 333 4.8 9.7 0.00 0.00 0.00 70 1025.4
20260502052530 10 300 1.6 4.8 0.00 0.00 0.00 70 1025.5
20260502052030 10 273 0.0 4.8 0.00 0.00 0.00 70 1025.5
20260502051535 10 319 1.6 6.4 0.00 0.00 0.00 70 1025.4
20260502051029 10 325 1.6 6.4 0.00 0.00 0.00 70 1025.5
20260502050529 9 315 1.6 6.4 0.00 0.00 0.00 71 1025.5
20260502050030 9 305 0.0 6.4 0.00 0.00 0.00 71 1025.4
20260502045541 9 275 0.0 3.2 0.00 0.00 0.00 71 1025.3
20260502045027 9 240 0.0 4.8 0.00 0.00 0.00 70 1025.4
20260502044525 9 296 0.0 4.8 0.00 0.00 0.00 70 1025.3
20260502044025 9 355 1.6 3.2 0.00 0.00 0.00 70 1025.4
20260502043525 9 329 0.0 6.4 0.00 0.00 0.00 70 1025.4
20260502043030 9 329 1.6 6.4 0.00 0.00 0.00 70 1025.3
20260502042524 9 314 0.0 4.8 0.00 0.00 0.00 70 1025.3
20260502042024 9 313 1.6 4.8 0.00 0.00 0.00 69 1025.3
20260502041524 9 318 0.0 6.4 0.00 0.00 0.00 69 1025.3
20260502041023 9 311 1.6 8.0 0.00 0.00 0.00 69 1025.3
20260502040523 9 317 3.2 8.0 0.00 0.00 0.00 69 1025.3
20260502040023 9 307 3.2 8.0 0.00 0.00 0.00 70 1025.3
20260502035522 9 318 0.0 8.0 0.00 0.00 0.00 70 1025.3
20260502035021 9 318 1.6 8.0 0.00 0.00 0.00 70 1025.2
20260502034521 9 309 0.0 6.4 0.00 0.00 0.00 70 1025.3
20260502034022 9 319 1.6 4.8 0.00 0.00 0.00 70 1025.3
20260502033523 10 277 0.0 4.8 0.00 0.00 0.00 70 1025.3
20260502033023 10 315 0.0 8.0 0.00 0.00 0.00 70 1025.3
20260502032520 10 299 3.2 8.0 0.00 0.00 0.00 70 1025.3
20260502032021 9 19 0.0 6.4 0.00 0.00 0.00 70 1025.2
20260502031520 10 22 1.6 6.4 0.00 0.00 0.00 69 1025.2
20260502031022 10 286 0.0 6.4 0.00 0.00 0.00 70 1025.4
20260502030521 10 196 0.0 0.0 0.00 0.00 0.00 69 1025.3
20260502030020 10 196 0.0 0.0 0.00 0.00 0.00 69 1025.3
20260502025524 10 196 0.0 3.2 0.00 0.00 0.00 69 1025.4
20260502025019 10 196 0.0 3.2 0.00 0.00 0.00 69 1025.5
20260502024525 10 196 1.6 4.8 0.00 0.00 0.00 69 1025.6
20260502024018 10 262 1.6 6.4 0.00 0.00 0.00 69 1025.4
20260502023518 10 307 0.0 6.4 0.00 0.00 0.00 69 1025.2
20260502023019 10 360 0.0 4.8 0.00 0.00 0.00 69 1025.2
20260502022519 10 298 0.0 3.2 0.00 0.00 0.00 69 1025.1
20260502022020 10 298 0.0 4.8 0.00 0.00 0.00 70 1025.1
20260502021518 10 297 0.0 6.4 0.00 0.00 0.00 70 1025.2
20260502021017 10 313 1.6 6.4 0.00 0.00 0.00 70 1025.2
20260502020516 10 314 1.6 6.4 0.00 0.00 0.00 70 1025.2
20260502020015 10 212 0.0 3.2 0.00 0.00 0.00 70 1025.1
20260502015514 10 210 0.0 3.2 0.00 0.00 0.00 70 1025.1
20260502015016 10 209 0.0 3.2 0.00 0.00 0.00 70 1025.3
20260502014514 10 328 0.0 4.8 0.00 0.00 0.00 70 1025.3
20260502014015 10 328 0.0 8.0 0.00 0.00 0.00 70 1025.2
20260502013512 10 332 1.6 8.0 0.00 0.00 0.00 70 1025.3
20260502013013 10 323 0.0 3.2 0.00 0.00 0.00 70 1025.3
20260502012512 10 323 0.0 3.2 0.00 0.00 0.00 70 1025.3
20260502012013 10 313 0.0 1.6 0.00 0.00 0.00 70 1025.4
20260502011510 10 313 0.0 3.2 0.00 0.00 0.00 70 1025.4
20260502011009 10 313 0.0 3.2 0.00 0.00 0.00 70 1025.4
20260502010513 10 312 0.0 1.6 0.00 0.00 0.00 70 1025.4
20260502010019 10 312 0.0 8.0 0.00 0.00 0.00 70 1025.4
20260502005508 10 314 1.6 8.0 0.00 0.00 0.00 70 1025.4
20260502005012 10 312 1.6 6.4 0.00 0.00 0.00 70 1025.5
20260502004512 10 311 1.6 6.4 0.00 0.00 0.00 70 1025.5
20260502004015 10 309 1.6 6.4 0.00 0.00 0.00 70 1025.5
20260502003508 10 311 1.6 6.4 0.00 0.00 0.00 70 1025.4
20260502003006 10 313 0.0 6.4 0.00 0.00 0.00 70 1025.4
20260502002508 10 313 1.6 8.0 0.00 0.00 0.00 70 1025.5
20260502002005 10 318 3.2 8.0 0.00 0.00 0.00 70 1025.5
20260502001504 10 313 3.2 6.4 0.00 0.00 0.00 70 1025.6
20260502001005 10 322 0.0 4.8 0.00 0.00 0.00 70 1025.5
20260502000504 11 322 0.0 4.8 0.00 0.00 0.00 70 1025.5
20260502000003 11 322 0.0 4.8 0.00 0.00 0.00 70 1025.7
20260501235502 11 321 0.0 1.6 0.00 0.00 0.00 70 1025.7
20260501235001 11 321 0.0 3.2 0.00 0.00 0.00 69 1025.7
20260501234501 11 321 0.0 3.2 0.00 0.00 0.00 69 1025.7
20260501234002 11 321 0.0 9.7 0.00 0.00 0.00 69 1025.7
20260501233600 11 321 0.0 9.7 0.00 0.00 0.00 69 1025.6
20260501233103 11 313 3.2 9.7 0.00 0.00 0.00 69 1025.7
20260501232558 11 311 4.8 9.7 0.00 0.00 0.00 68 1025.7
20260501232100 11 311 0.0 3.2 0.00 0.00 0.00 68 1025.7
20260501231559 11 311 0.0 4.8 0.00 0.00 0.00 68 1025.7
20260501231056 11 311 0.0 4.8 0.00 0.00 0.00 68 1025.7
20260501230556 11 311 0.0 6.4 0.00 0.00 0.00 69 1025.7
20260501225555 12 306 1.6 4.8 0.00 0.00 0.00 68 1025.7
20260501225053 12 304 1.6 4.8 0.00 0.00 0.00 67 1025.7
20260501224553 12 304 0.0 6.4 0.00 0.00 0.00 67 1025.7
20260501224055 12 304 1.6 6.4 0.00 0.00 0.00 67 1025.8
20260501223551 12 304 0.0 3.2 0.00 0.00 0.00 67 1025.8
20260501223051 12 304 0.0 6.4 0.00 0.00 0.00 67 1025.7
20260501222555 12 304 0.0 6.4 0.00 0.00 0.00 67 1025.7
20260501222050 12 324 1.6 6.4 0.00 0.00 0.00 67 1025.6
20260501221555 12 324 0.0 6.4 0.00 0.00 0.00 67 1025.6
20260501221048 12 321 0.0 3.2 0.00 0.00 0.00 67 1025.5
20260501220547 12 322 0.0 6.4 0.00 0.00 0.00 67 1025.4
20260501220047 12 322 0.0 6.4 0.00 0.00 0.00 67 1025.5
20260501215547 12 321 1.6 6.4 0.00 0.00 0.00 67 1025.4
20260501215049 12 321 1.6 4.8 0.00 0.00 0.00 67 1025.4